TimeCET,TemperatureF,Dew PointF,Humidity,Sea Level PressureIn,VisibilityMPH,Wind Direction,Wind SpeedMPH,Gust SpeedMPH,PrecipitationIn,Events,Conditions,WindDirDegrees,DateUTC
12:20 AM,-5.8,-9.4,84,30.06,6.2,Calm,Calm,-,N/A,,Unknown,0,2013-01-17 23:20:00
12:50 AM,1.4,-2.2,85,30.06,6.2,Calm,Calm,-,N/A,,Unknown,0,2013-01-17 23:50:00
1:20 AM,1.4,-2.2,85,30.06,6.2,WNW,1.2,-,N/A,,Unknown,300,2013-01-18 00:20:00
1:50 AM,-0.4,-4.0,85,30.04,6.2,Calm,Calm,-,N/A,,Unknown,0,2013-01-18 00:50:00
2:20 AM,-0.4,-4.0,85,30.04,6.2,Calm,Calm,-,N/A,,Unknown,0,2013-01-18 01:20:00
2:50 AM,-0.4,-4.0,85,30.04,6.2,Calm,Calm,-,N/A,,Unknown,0,2013-01-18 01:50:00
3:50 AM,-2.2,-5.8,85,30.04,6.2,Calm,Calm,-,N/A,,Mostly Cloudy,0,2013-01-18 02:50:00
4:20 AM,1.4,-2.2,85,30.01,6.2,Calm,Calm,-,N/A,,Overcast,0,2013-01-18 03:20:00
4:50 AM,5.0,3.2,92,30.01,6.2,Calm,Calm,-,N/A,,Overcast,0,2013-01-18 03:50:00
5:20 AM,5.0,3.2,92,29.98,6.2,Calm,Calm,-,N/A,,Overcast,0,2013-01-18 04:20:00
5:50 AM,8.6,5.0,85,29.98,6.2,Calm,Calm,-,N/A,,Overcast,0,2013-01-18 04:50:00
6:20 AM,6.8,3.2,85,29.95,-9999.0,Calm,Calm,-,N/A,,Clear,0,2013-01-18 05:20:00
6:50 AM,10.4,6.8,85,29.95,-9999.0,Calm,Calm,-,N/A,,Clear,0,2013-01-18 05:50:00
7:20 AM,12.2,10.4,92,29.95,-9999.0,Calm,Calm,-,N/A,,Clear,0,2013-01-18 06:20:00
7:50 AM,14.0,10.4,86,29.92,-9999.0,Calm,Calm,-,N/A,,Clear,0,2013-01-18 06:50:00
8:20 AM,14.0,10.4,86,29.92,-9999.0,Calm,Calm,-,N/A,,Clear,0,2013-01-18 07:20:00
8:50 AM,14.0,12.2,93,29.92,-9999.0,Calm,Calm,-,N/A,,Clear,0,2013-01-18 07:50:00
9:20 AM,14.0,12.2,93,29.92,-9999.0,Variable,1.2,-,N/A,,Clear,0,2013-01-18 08:20:00
9:50 AM,17.6,17.6,100,29.89,-9999.0,Variable,1.2,-,N/A,,Clear,0,2013-01-18 08:50:00
10:20 AM,19.4,17.6,93,29.89,-9999.0,Variable,2.3,-,N/A,,Clear,0,2013-01-18 09:20:00
10:50 AM,21.2,19.4,93,29.89,-9999.0,NW,3.5,-,N/A,,Clear,310,2013-01-18 09:50:00
11:20 AM,23.0,21.2,93,29.89,-9999.0,WNW,3.5,-,N/A,,Clear,300,2013-01-18 10:20:00
11:50 AM,23.0,21.2,93,29.89,-9999.0,North,2.3,-,N/A,,Clear,350,2013-01-18 10:50:00
12:20 PM,24.8,23.0,93,29.89,6.2,NNW,1.2,-,N/A,,Unknown,340,2013-01-18 11:20:00
12:50 PM,24.8,23.0,93,29.86,6.2,Variable,2.3,-,N/A,,Unknown,0,2013-01-18 11:50:00
1:20 PM,24.8,23.0,93,29.86,6.2,NW,3.5,-,N/A,,Unknown,320,2013-01-18 12:20:00
1:50 PM,24.8,23.0,93,29.86,6.2,North,2.3,-,N/A,,Unknown,350,2013-01-18 12:50:00
2:20 PM,24.8,24.8,100,29.86,6.2,Variable,1.2,-,N/A,,Unknown,0,2013-01-18 13:20:00
2:50 PM,24.8,24.8,100,29.83,6.2,Variable,2.3,-,N/A,,Partly Cloudy,0,2013-01-18 13:50:00
3:20 PM,26.6,24.8,93,29.83,6.2,NW,4.6,-,N/A,,Unknown,310,2013-01-18 14:20:00
3:50 PM,26.6,23.0,86,29.83,6.2,NW,5.8,-,N/A,,Partly Cloudy,310,2013-01-18 14:50:00
4:20 PM,26.6,24.8,93,29.83,6.2,NW,5.8,-,N/A,,Scattered Clouds,310,2013-01-18 15:20:00
4:50 PM,28.4,26.6,93,29.83,6.2,WNW,5.8,-,N/A,,Unknown,300,2013-01-18 15:50:00
5:20 PM,28.4,26.6,93,29.83,6.2,NW,6.9,-,N/A,,Mostly Cloudy,320,2013-01-18 16:20:00
5:50 PM,30.2,28.4,93,29.83,6.2,WNW,3.5,-,N/A,,Partly Cloudy,300,2013-01-18 16:50:00
6:20 PM,28.4,28.4,100,29.83,6.2,Variable,2.3,-,N/A,,Unknown,0,2013-01-18 17:20:00
6:50 PM,28.4,26.6,93,29.80,6.2,Variable,1.2,-,N/A,,Mostly Cloudy,0,2013-01-18 17:50:00
7:20 PM,30.2,28.4,93,29.80,6.2,West,5.8,-,N/A,,Unknown,260,2013-01-18 18:20:00
7:50 PM,30.2,28.4,93,29.77,6.2,West,3.5,-,N/A,,Unknown,270,2013-01-18 18:50:00
8:20 PM,30.2,28.4,93,29.77,6.2,West,5.8,-,N/A,,Unknown,270,2013-01-18 19:20:00
8:50 PM,32.0,28.4,87,29.77,6.2,West,6.9,-,N/A,,Unknown,270,2013-01-18 19:50:00
9:20 PM,32.0,28.4,87,29.77,6.2,West,6.9,-,N/A,,Partly Cloudy,270,2013-01-18 20:20:00
9:50 PM,32.0,28.4,87,29.74,6.2,West,5.8,-,N/A,,Partly Cloudy,270,2013-01-18 20:50:00
10:20 PM,32.0,28.4,87,29.74,6.2,West,9.2,-,N/A,,Scattered Clouds,270,2013-01-18 21:20:00
10:50 PM,33.8,28.4,81,29.74,6.2,West,6.9,-,N/A,,Overcast,270,2013-01-18 21:50:00
11:20 PM,32.0,30.2,93,29.74,6.2,West,6.9,-,N/A,,Overcast,280,2013-01-18 22:20:00
11:50 PM,32.0,30.2,93,29.71,6.2,West,6.9,-,N/A,,Overcast,280,2013-01-18 22:50:00